Change the Weather History Date:

Wednesday, June 26, 2013

  Actual Average (KBGD) Record (KBGD)
Temperature  
Mean Temperature 83 °F 80 °F  
Max Temperature 102 °F 92 °F 113 °F (2011)
Min Temperature 64 °F 67 °F 48 °F (1958)
Degree Days  
Heating Degree Days 0 0  
Month to date heating degree days 0  
Since 1 June heating degree days 0  
Since 1 July heating degree days 3763  
Cooling Degree Days 18 14  
Month to date cooling degree days 298  
Year to date cooling degree days 495  
Since 1 June cooling degree days 298  
Growing Degree Days 33 (Base 50)    
Moisture  
Dew Point 44 °F    
Average Humidity 28    
Maximum Humidity 62    
Minimum Humidity 9    
Precipitation  
Precipitation 0.00 in 0.09 in 1.35 in (2007)
Month to date precipitation 2.83  
Year to date precipitation 9.88  
Snow  
Snow 0.00 in - 0.00 in (2013)
Month to date snowfall  
Since 1 June snowfall  
Since 1 July snowfall  
Snow Depth -    
Sea Level Pressure  
Sea Level Pressure 29.94 in    
Wind  
Wind Speed 9 mph (SE)    
Max Wind Speed 16 mph    
Max Gust Speed 18 mph    
Visibility 10 miles    
Events      
T = Trace of Precipitation, MM = Missing Value Source: NWS Daily Summary

Daily Weather History Graph

Daily Weather History Graph

Search for Another Location

Airport or City:

Trip Planner

Search our weather history database for the weather conditions in past years. The results will help you decide how hot, cold, wet, or windy it might be!

Date:

Astronomy

Jun. 26, 2013 Rise Set
Actual Time 6:33 AM CDT 9:08 PM CDT
Civil Twilight 6:03 AM CDT 9:38 PM CDT
Nautical Twilight 5:25 AM CDT 10:15 PM CDT
Astronomical Twilight 4:44 AM CDT 10:57 PM CDT
Moon 11:41 PM CDT (6/26) 10:19 AM CDT (6/26)
Length of Visible Light 15h 35m
Length of Day
14h 34m
Waning Gibbous, 85% of the Moon is Illuminated
Jun 26
Waning Gibbous
Jun 29
Last Quarter
Jul 8
New
Jul 15
First Quarter
Jul 22
Full

Hourly Weather History & Observations

Time (CDT) Temp. Heat Index Dew Point Humidity Pressure Visibility Wind Dir Wind Speed Gust Speed Precip Events Conditions
12:15 AM 71.4 °F - 25.9 °F 18% 29.87 in 10.0 mi WSW 3.5 mph - N/A   Clear
12:35 AM 71.1 °F - 26.2 °F 19% 29.88 in 10.0 mi Calm Calm - N/A   Clear
12:55 AM 74.7 °F - 22.6 °F 14% 29.87 in 10.0 mi SSW 5.8 mph - N/A   Clear
1:15 AM 70.7 °F - 24.1 °F 17% 29.86 in 10.0 mi SSW 5.8 mph - N/A   Clear
1:35 AM 66.2 °F - 27.5 °F 23% 29.87 in 10.0 mi SSW 5.8 mph - N/A   Clear
1:55 AM 64.4 °F - 29.3 °F 27% 29.86 in 10.0 mi SSW 8.1 mph - N/A   Clear
2:15 AM 70.5 °F - 27.3 °F 20% 29.86 in 10.0 mi South 15.0 mph - N/A   Clear
2:35 AM 73.9 °F - 27.5 °F 18% 29.86 in 10.0 mi SSW 12.7 mph - N/A   Clear
2:55 AM 74.1 °F - 32.0 °F 21% 29.86 in 10.0 mi SSW 15.0 mph - N/A   Clear
3:15 AM 75.4 °F - 34.3 °F 22% 29.86 in 10.0 mi SSW 15.0 mph - N/A   Clear
3:35 AM 74.5 °F - 35.2 °F 24% 29.86 in 10.0 mi SSW 13.8 mph - N/A   Clear
3:55 AM 73.4 °F - 37.6 °F 27% 29.86 in 10.0 mi SSW 12.7 mph - N/A   Clear
4:15 AM 73.0 °F - 39.4 °F 30% 29.86 in 10.0 mi SSW 12.7 mph - N/A   Clear
4:35 AM 72.7 °F - 41.2 °F 32% 29.87 in 10.0 mi SW 13.8 mph - N/A   Clear
4:55 AM 73.0 °F - 45.5 °F 37% 29.87 in 10.0 mi SSW 15.0 mph - N/A   Clear
5:15 AM 73.8 °F - 48.9 °F 41% 29.88 in 10.0 mi SSW 16.1 mph - N/A   Clear
5:35 AM 72.5 °F - 50.4 °F 46% 29.88 in 10.0 mi SSW 15.0 mph - N/A   Clear
5:55 AM 71.8 °F - 52.0 °F 50% 29.89 in 10.0 mi SSW 11.5 mph - N/A   Clear
6:15 AM 70.5 °F - 53.6 °F 55% 29.91 in 10.0 mi SSW 5.8 mph - N/A   Clear
6:35 AM 68.4 °F - 54.7 °F 62% 29.91 in 7.0 mi SW 6.9 mph - N/A   Scattered Clouds
6:55 AM 68.7 °F - 54.1 °F 60% 29.92 in 7.0 mi SW 8.1 mph - N/A   Scattered Clouds
7:15 AM 68.5 °F - 54.1 °F 60% 29.92 in 7.0 mi SW 8.1 mph - N/A   Clear
7:35 AM 71.4 °F - 47.5 °F 42% 29.93 in 10.0 mi West 9.2 mph - N/A   Clear
7:55 AM 69.8 °F - 41.0 °F 35% 29.94 in 10.0 mi WNW 11.5 mph - N/A   Clear
8:15 AM 67.5 °F - 42.8 °F 41% 29.95 in 10.0 mi WNW 13.8 mph - N/A   Clear
8:35 AM 69.1 °F - 48.9 °F 49% 29.95 in 10.0 mi NW 15.0 mph - N/A   Clear
8:55 AM 70.9 °F - 51.4 °F 50% 29.95 in 10.0 mi NW 12.7 mph - N/A   Clear
9:15 AM 73.2 °F - 53.1 °F 49% 29.96 in 10.0 mi NW 13.8 mph - N/A   Clear
9:55 AM 78.6 °F - 55.0 °F 44% 29.97 in 10.0 mi NNW 15.0 mph - N/A   Clear
10:15 AM 80.6 °F 80.4 °F 55.0 °F 41% 29.97 in 10.0 mi NNW 16.1 mph - N/A   Clear
10:35 AM 83.3 °F 82.5 °F 55.9 °F 39% 29.97 in 10.0 mi NNW 13.8 mph - N/A   Clear
10:55 AM 85.3 °F 83.8 °F 54.5 °F 35% 29.97 in 10.0 mi North 13.8 mph - N/A   Clear
11:15 AM 88.9 °F 86.5 °F 53.1 °F 29% 29.97 in 10.0 mi North 11.5 mph 17.3 mph N/A   Clear
11:35 AM 90.1 °F 87.9 °F 53.4 °F 29% 29.98 in 10.0 mi North 10.4 mph - N/A   Clear
11:55 AM 92.5 °F - 47.5 °F 21% 29.98 in 10.0 mi North 13.8 mph - N/A   Clear
12:15 PM 94.1 °F - 42.6 °F 17% 29.98 in 10.0 mi NNE 12.7 mph - N/A   Clear
12:35 PM 95.5 °F - 46.8 °F 19% 29.98 in 10.0 mi North 12.7 mph 17.3 mph N/A   Clear
12:55 PM 97.0 °F - 44.1 °F 16% 29.98 in 10.0 mi NE 12.7 mph 18.4 mph N/A   Clear
1:15 PM 97.5 °F - 43.2 °F 15% 29.98 in 10.0 mi NE 12.7 mph 17.3 mph N/A   Clear
1:35 PM 98.6 °F - 45.1 °F 16% 29.98 in 10.0 mi ENE 12.7 mph 17.3 mph N/A   Clear
1:55 PM 99.0 °F - 43.3 °F 15% 29.98 in 10.0 mi ENE 9.2 mph - N/A   Clear
2:15 PM 98.6 °F - 40.5 °F 13% 29.97 in 10.0 mi NE 8.1 mph 17.3 mph N/A   Clear
2:35 PM 100.6 °F - 42.8 °F 14% 29.97 in 10.0 mi East 9.2 mph 16.1 mph N/A   Clear
2:55 PM 101.1 °F - 41.9 °F 13% 29.97 in 10.0 mi East 9.2 mph 16.1 mph N/A   Clear
3:15 PM 101.1 °F - 37.2 °F 11% 29.97 in 10.0 mi ESE 8.1 mph - N/A   Clear
3:35 PM 100.2 °F - 37.9 °F 12% 29.96 in 10.0 mi NE 5.8 mph - N/A   Clear
3:55 PM 101.3 °F - 39.4 °F 12% 29.96 in 10.0 mi NE 5.8 mph - N/A   Clear
4:15 PM 101.3 °F - 39.2 °F 12% 29.96 in 10.0 mi NE 9.2 mph - N/A   Clear
4:35 PM 101.8 °F - 36.9 °F 11% 29.96 in 10.0 mi East 9.2 mph 17.3 mph N/A   Clear
4:55 PM 101.8 °F - 41.5 °F 13% 29.95 in 10.0 mi ENE 12.7 mph - N/A   Clear
5:15 PM 102.0 °F - 35.6 °F 10% 29.95 in 10.0 mi ESE 10.4 mph - N/A   Clear
5:35 PM 102.0 °F - 34.2 °F 9% 29.95 in 10.0 mi ESE 9.2 mph - N/A   Clear
5:55 PM 102.0 °F - 34.3 °F 10% 29.95 in 10.0 mi SE 5.8 mph 16.1 mph N/A   Clear
6:15 PM 102.7 °F - 36.1 °F 10% 29.94 in 10.0 mi East 13.8 mph 17.3 mph N/A   Clear
6:35 PM 101.3 °F - 36.9 °F 11% 29.93 in 10.0 mi East 3.5 mph - N/A   Clear
6:55 PM 100.9 °F - 36.0 °F 11% 29.93 in 10.0 mi ESE 10.4 mph - N/A   Clear
7:15 PM 100.2 °F - 35.6 °F 11% 29.94 in 10.0 mi ESE 11.5 mph - N/A   Clear
7:35 PM 99.5 °F - 31.6 °F 9% 29.94 in 10.0 mi ESE 11.5 mph 16.1 mph N/A   Clear
7:55 PM 98.6 °F - 31.6 °F 10% 29.95 in 10.0 mi ESE 10.4 mph - N/A   Clear
8:15 PM 96.8 °F - 37.4 °F 13% 29.95 in 10.0 mi East 9.2 mph - N/A   Clear
8:35 PM 95.0 °F - 43.5 °F 17% 29.96 in 10.0 mi ESE 9.2 mph - N/A   Clear
8:55 PM 92.5 °F - 52.7 °F 26% 29.96 in 10.0 mi ESE 12.7 mph - N/A   Clear
9:15 PM 90.1 °F 88.1 °F 54.5 °F 30% 29.97 in 10.0 mi ESE 10.4 mph - N/A   Clear
9:35 PM 88.0 °F 86.1 °F 54.5 °F 32% 29.98 in 10.0 mi SE 9.2 mph - N/A   Clear
9:55 PM 85.3 °F 83.9 °F 55.4 °F 36% 29.98 in 10.0 mi SE 9.2 mph - N/A   Clear
10:15 PM 85.3 °F 84.4 °F 57.6 °F 39% 30.00 in 10.0 mi SE 9.2 mph - N/A   Clear
10:35 PM 84.4 °F 84.2 °F 59.7 °F 43% 30.01 in 10.0 mi ESE 10.4 mph - N/A   Clear
10:55 PM 83.5 °F 83.7 °F 60.6 °F 46% 30.01 in 10.0 mi SE 10.4 mph - N/A   Clear
11:15 PM 82.8 °F 83.3 °F 61.0 °F 48% 30.02 in 10.0 mi SE 9.2 mph - N/A   Clear
11:35 PM 81.1 °F 81.9 °F 60.8 °F 50% 30.02 in 10.0 mi SE 11.5 mph - N/A   Clear
11:55 PM 82.4 °F 82.9 °F 61.0 °F 48% 30.02 in 10.0 mi SE 10.4 mph - N/A   Clear